Theta_e
318 319 318 319 320 320 321 323 324 324 324 323 324 328 327 326 326 321 317 322 321 332 324 313 315 312 310 306 309 310 300 296 300 302 302 303 301 303 306 309 308 313 314 319 329
320 320 319 319 320 320 321 323 324 324 323 324 323 326 326 325 318 315 326 331 330 330 317 310 311 312 306 306 306 303 301 300 307 304 301 303 302 303 304 305 306 317 323 327 328
320 320 320 320 320 320 321 323 324 323 322 323 323 323 326 324 312 312 329 331 329 327 321 316 315 311 304 305 305 302 302 308 309 302 301 303 302 304 302 300 306 313 319 323 322
319 319 319 320 320 318 319 321 323 323 322 322 321 323 324 318 298 313 327 332 329 326 320 315 311 307 303 303 306 300 308 308 311 304 301 301 303 302 302 303 308 319 323 322 321
318 318 318 319 319 319 318 319 322 322 322 322 320 323 319 309 308 318 328 330 324 321 318 313 308 307 303 306 308 305 307 312 311 303 301 302 300 301 301 304 303 318 323 321 321
317 317 317 318 319 319 318 317 319 321 322 322 320 323 311 300 318 321 321 323 321 318 316 314 310 310 305 306 306 308 310 311 307 301 300 299 298 299 301 303 306 317 321 321 320
317 317 317 318 318 319 319 317 316 320 321 321 320 316 308 303 317 317 319 318 320 318 314 317 314 309 306 303 313 310 304 308 308 299 298 299 295 296 302 301 302 313 319 321 320
317 316 316 317 317 318 318 316 318 320 320 320 321 310 300 313 316 316 315 313 318 319 318 321 316 311 308 309 306 305 303 295 298 297 297 297 293 298 300 299 299 302 312 319 320
316 316 316 316 316 316 317 316 318 319 319 319 312 308 298 317 311 316 315 311 315 315 316 317 315 308 306 300 294 301 295 292 293 297 295 294 291 299 301 298 298 298 303 314 317
316 315 316 316 316 316 316 316 316 315 314 314 312 301 304 303 311 315 316 315 311 310 308 305 303 301 301 296 286 292 295 294 295 295 294 292 292 297 301 297 298 298 301 307 313
316 315 316 315 316 315 311 306 300 297 302 296 298 298 302 307 314 311 314 309 308 307 299 301 296 292 296 297 295 295 298 296 298 302 294 293 293 296 299 297 296 297 298 303 310
315 315 315 315 315 315 309 298 298 299 292 301 300 301 304 307 301 307 312 304 301 297 301 296 292 298 299 298 296 295 294 296 299 304 297 294 295 300 298 300 298 297 297 300 307
315 315 314 314 314 310 304 301 306 304 291 295 298 297 299 304 298 301 308 304 300 297 297 293 295 300 295 294 294 294 293 297 298 293 293 291 290 294 298 301 298 298 300 301 305
314 314 313 313 306 305 301 307 308 304 280 284 293 297 299 301 295 304 308 303 300 295 296 296 299 296 294 293 296 291 298 297 300 292 286 293 285 292 297 297 299 299 299 300 300
308 313 313 312 301 300 304 308 305 297 264 285 291 303 300 295 295 297 308 302 296 294 293 292 292 293 292 294 298 294 299 298 299 293 287 285 284 287 294 295 298 298 299 299 300
307 312 312 306 304 304 308 307 299 280 269 281 295 294 293 294 294 300 300 303 303 297 294 293 295 297 296 298 300 302 297 293 292 291 286 285 287 283 287 294 297 301 297 299 297
307 312 309 305 298 307 307 300 282 274 281 278 287 293 291 290 292 294 293 292 290 286 285 287 290 295 297 294 298 297 288 281 280 281 283 285 282 288 292 293 297 298 298 297 297
307 311 308 304 307 307 302 288 272 274 277 289 289 290 288 292 291 292 292 289 294 293 288 284 281 289 295 294 291 294 289 283 279 277 278 280 281 286 294 299 294 295 296 295 295
308 307 303 304 308 305 293 279 275 276 285 286 287 283 285 290 291 291 291 291 294 294 288 286 287 292 294 294 294 288 286 293 281 276 278 279 283 289 292 291 292 292 292 292 293
302 301 299 306 307 300 288 279 278 288 291 289 279 282 274 285 286 288 289 294 293 296 298 291 286 291 293 296 295 292 294 284 284 274 273 277 278 283 287 290 291 290 291 292 292
301 291 300 306 304 293 281 281 282 289 292 287 287 283 283 283 286 285 288 292 296 295 298 295 289 285 289 287 287 288 286 286 286 282 276 274 278 286 288 289 289 290 291 291 292
292 284 301 304 288 288 281 282 287 286 290 288 288 287 288 288 285 287 287 291 297 297 292 295 287 282 285 289 293 291 289 288 282 279 280 280 280 286 288 288 289 290 290 291 292
285 288 300 298 281 282 283 283 285 284 285 288 286 289 290 288 286 288 289 296 298 297 294 292 286 278 281 285 287 288 290 290 290 284 279 278 280 286 286 285 288 290 289 291 292
287 284 289 291 285 283 280 281 280 286 285 288 288 291 288 286 289 287 288 294 298 298 299 296 287 287 279 282 285 284 288 289 288 279 279 281 282 283 285 287 288 289 289 291 292
286 283 285 281 280 283 283 281 280 280 284 286 286 286 286 283 285 285 289 292 296 298 297 295 284 287 286 289 289 287 287 287 287 287 283 283 283 285 286 287 289 289 290 291 293
284 284 285 284 284 282 283 278 280 281 282 281 282 286 289 285 286 285 289 290 291 295 291 294 284 284 281 286 288 284 287 288 288 289 287 288 286 290 290 288 288 290 290 291 292
289 289 286 286 281 281 280 280 281 283 284 287 286 286 287 288 292 293 293 292 294 292 290 290 285 285 282 283 284 279 285 287 288 290 289 284 288 290 289 290 290 290 291 291 291
Wind_Speed
16 15 15 14 11 10 10 9 9 6 4 3 7 6 1 7 5 2 7 6 5 9 7 5 5 5 4 4 3 1 0 4 6 5 4 5 4 2 2 7 3 4 5 6 17
16 15 15 14 11 10 11 9 10 8 4 4 6 5 2 8 2 7 5 8 8 9 3 4 8 8 2 4 4 2 5 6 5 3 5 5 4 7 5 5 4 5 8 12 15
18 16 15 14 12 11 9 8 10 9 6 4 5 6 7 6 3 7 18 13 12 7 6 5 11 7 3 4 4 4 6 13 8 2 3 7 6 4 8 4 8 10 11 10 8
21 19 16 14 12 12 10 7 7 11 8 6 2 5 10 3 7 4 10 16 16 10 5 7 6 7 4 7 5 5 11 7 6 5 4 4 4 5 7 8 9 17 20 13 14
22 20 17 15 14 11 10 7 6 11 11 9 3 2 5 6 6 2 9 9 6 4 8 7 6 6 6 6 12 15 9 15 10 7 6 4 5 5 7 8 6 15 17 17 15
23 21 19 17 15 13 10 7 5 8 11 10 5 12 4 14 4 8 8 9 6 6 5 6 6 10 5 9 14 7 22 12 8 9 6 6 5 5 8 7 6 20 18 16 18
24 22 20 18 16 14 11 8 5 6 11 11 10 4 7 11 5 5 9 5 6 7 7 4 11 6 5 12 8 23 19 18 14 7 6 5 5 12 8 7 10 15 16 16 17
25 23 22 20 18 15 12 9 5 6 11 12 9 3 8 4 9 8 3 5 6 5 5 8 7 5 8 5 11 10 16 14 7 10 6 12 10 17 10 8 10 12 13 16 17
26 24 23 21 19 16 13 9 7 7 10 11 4 4 6 2 7 10 7 5 6 5 5 7 6 3 5 5 14 6 15 6 6 11 6 7 7 13 10 11 12 11 12 15 15
27 26 25 22 21 18 14 10 7 5 4 4 2 3 6 4 5 9 7 14 4 9 3 3 3 5 6 7 10 13 13 6 11 8 6 8 11 11 4 9 15 10 12 12 16
29 27 26 23 22 20 13 6 5 2 6 8 6 4 4 5 6 10 8 9 5 8 13 8 6 15 24 18 18 19 23 15 10 8 12 17 15 17 14 5 10 13 10 14 16
30 29 27 25 24 21 11 6 8 7 5 14 10 14 16 3 2 9 12 12 10 14 15 5 22 23 11 13 14 14 26 24 7 19 13 10 18 20 12 10 13 13 11 14 15
32 30 28 27 24 16 16 14 8 5 4 4 15 11 7 9 8 12 18 12 9 14 16 20 26 16 20 15 14 13 25 20 15 5 3 4 7 13 9 15 8 12 13 14 18
31 33 31 28 16 12 17 16 5 7 3 7 8 9 10 7 12 10 20 10 12 17 9 17 10 22 19 27 19 16 22 21 24 15 10 8 7 9 15 15 18 18 18 15 12
15 38 35 30 12 14 12 12 8 6 2 8 8 2 10 19 7 14 8 12 22 7 8 14 12 19 24 26 26 22 17 18 22 20 8 6 1 8 7 14 17 18 19 17 16
14 37 37 19 9 15 17 16 6 5 12 4 7 13 10 16 4 6 11 5 5 14 11 4 2 13 14 16 24 6 3 7 7 7 11 10 11 6 7 13 9 16 15 19 13
21 35 33 17 17 18 20 12 8 9 4 6 7 8 15 11 18 16 18 22 19 12 13 4 6 2 3 13 7 9 12 0 3 7 7 10 7 12 8 7 8 15 15 14 12
22 32 26 15 17 24 14 11 6 7 9 6 6 11 13 15 14 18 17 22 28 26 6 10 5 13 12 8 13 23 14 8 8 7 3 3 12 8 15 17 6 7 9 9 10
23 18 17 13 22 18 17 17 13 8 17 11 8 6 8 10 5 19 26 25 22 24 20 13 17 11 15 7 14 9 12 12 4 5 5 7 6 10 8 7 6 7 9 9 8
15 16 20 22 22 16 16 16 7 6 6 6 11 8 8 7 8 11 16 15 11 32 24 9 9 9 9 8 1 7 9 6 8 6 3 4 4 6 4 9 8 7 8 7 5
12 11 17 21 14 15 19 15 6 7 8 8 9 6 7 9 13 8 5 11 21 24 24 12 7 5 7 9 14 10 10 7 7 4 7 4 8 7 9 7 10 8 6 6 5
6 6 20 18 12 12 12 11 7 8 5 4 5 5 5 8 10 11 15 17 24 24 35 6 5 6 10 6 8 3 9 10 4 5 2 3 6 3 6 6 8 7 7 4 4
6 8 15 17 11 16 5 6 4 9 9 9 10 8 7 5 8 14 11 8 18 24 22 11 7 6 5 2 4 5 10 13 12 1 7 7 6 1 4 3 5 7 7 6 6
7 11 8 10 1 19 12 14 9 6 5 6 5 7 6 7 8 6 8 6 18 30 23 18 9 17 16 20 14 15 25 26 24 5 5 6 5 4 5 7 6 6 6 7 7
2 4 2 13 6 18 17 11 14 10 8 9 6 18 10 7 12 14 14 18 9 19 17 17 10 12 7 18 15 19 22 24 28 15 10 8 9 10 10 10 8 7 6 7 7
7 8 3 13 12 13 18 11 20 15 13 16 18 14 13 17 18 6 7 9 9 19 10 7 6 3 1 8 15 9 18 21 21 14 2 14 8 8 7 8 7 8 9 8 8
2 4 7 17 11 9 15 17 18 9 9 16 19 11 18 24 18 17 11 6 16 15 18 11 10 11 8 5 11 1 25 24 21 20 16 12 8 9 7 11 13 10 9 10 10
Wind_Direction
231 239 245 250 245 249 241 236 219 204 235 307 330 322 261 135 126 169 186 217 244 357 334 119 77 340 331 274 279 307 62 233 248 215 187 176 135 102 131 122 71 31 139 176 160
223 226 234 242 248 249 257 228 217 192 193 277 306 310 202 159 233 237 220 179 66 1 327 113 97 52 302 291 287 186 189 237 252 294 175 190 141 158 115 130 79 60 50 121 152
216 224 225 232 237 241 251 234 208 187 179 214 284 307 156 180 287 243 202 166 121 61 60 70 95 74 340 320 230 237 220 230 265 166 338 170 150 179 126 206 188 172 151 148 156
216 215 220 221 223 234 238 247 225 177 180 170 231 287 166 229 237 298 236 170 140 117 104 121 84 101 124 245 228 250 232 224 243 182 141 177 141 169 168 205 186 166 162 155 171
211 212 213 215 212 218 224 228 224 192 177 170 195 183 149 226 244 260 89 145 100 98 142 136 117 119 159 238 260 243 250 226 233 194 190 148 217 197 221 221 135 151 159 169 176
209 207 205 205 205 203 208 213 227 202 185 170 165 168 222 243 166 147 133 148 163 147 132 148 140 101 70 283 250 271 240 242 204 194 190 174 229 158 235 199 159 159 175 173 179
206 202 200 199 197 196 191 203 234 216 189 184 179 136 252 237 113 142 132 175 169 170 153 98 124 108 90 321 318 270 272 237 236 193 187 121 277 223 211 173 176 174 179 178 184
203 200 194 196 193 185 179 188 208 227 194 199 183 117 246 238 139 150 85 42 71 66 73 125 117 110 133 4 313 277 250 226 204 165 223 146 242 242 214 188 202 190 183 181 184
198 196 190 189 187 178 172 181 195 211 198 196 166 201 243 124 183 174 142 142 117 84 94 113 149 157 99 128 303 247 233 200 201 186 134 164 235 246 216 198 215 197 194 188 190
196 191 186 184 178 168 163 166 198 149 159 157 285 135 227 211 158 152 172 151 147 130 121 100 107 171 173 151 239 279 247 220 202 207 163 200 242 256 239 198 218 199 202 196 193
191 188 183 177 169 167 152 122 122 193 211 192 187 210 110 173 100 168 147 130 148 172 200 169 197 210 203 186 202 269 280 229 204 206 189 214 217 238 249 200 222 211 201 203 201
188 184 180 172 169 168 153 174 176 174 167 236 245 225 250 16 174 161 152 184 176 211 182 178 219 219 178 187 198 235 275 250 224 218 193 210 231 241 211 228 216 207 211 211 207
186 179 175 167 165 169 182 188 165 88 86 237 217 222 181 176 215 184 178 199 211 202 204 216 235 208 183 190 202 225 255 261 230 163 225 132 257 249 227 225 209 215 214 210 199
196 172 167 160 159 171 190 195 123 95 58 264 199 235 185 128 243 191 185 184 215 217 197 226 216 188 196 209 202 223 234 270 269 171 201 158 265 242 221 217 217 218 218 213 195
242 167 163 162 139 178 159 150 115 62 93 220 181 195 166 178 122 195 154 198 223 175 164 213 171 192 191 201 186 225 216 263 254 214 132 194 180 257 213 221 220 219 217 213 205
224 168 163 160 139 163 142 134 92 117 226 216 136 170 153 204 217 109 167 203 215 228 207 184 281 209 205 204 195 93 187 332 276 221 206 182 173 239 206 209 216 219 207 210 202
188 183 164 162 164 149 140 146 164 197 248 203 168 165 185 180 207 197 191 195 201 194 189 158 184 178 227 138 149 146 109 115 231 243 219 166 178 236 224 233 216 208 209 207 196
195 200 166 170 152 148 151 152 172 204 206 122 156 174 190 186 207 204 205 219 206 210 174 180 197 174 190 192 174 179 157 146 242 217 169 116 220 239 222 240 210 203 209 199 202
207 170 157 175 152 155 153 183 193 191 189 140 132 168 195 217 197 198 211 214 206 197 199 192 205 176 178 163 161 166 191 156 279 255 96 210 279 302 247 247 206 184 165 179 176
209 159 165 162 161 157 165 192 184 173 112 123 194 158 173 177 194 204 198 198 206 199 205 196 206 193 169 154 87 169 119 173 208 207 226 277 269 229 210 218 208 207 209 206 197
193 152 159 152 162 164 185 190 164 167 132 133 196 188 191 172 199 198 231 204 196 193 207 198 147 152 156 198 176 159 143 191 254 192 158 145 256 212 211 192 180 185 187 184 172
158 133 153 157 170 182 185 159 147 163 136 112 119 165 202 195 209 215 223 215 202 187 204 204 94 164 206 158 204 199 144 174 190 240 272 142 260 260 160 147 146 168 164 143 139
118 125 155 160 180 170 126 174 146 167 180 163 181 184 164 216 243 212 213 227 212 197 192 152 183 122 124 19 17 212 180 196 258 201 206 136 247 79 143 147 179 166 165 157 133
123 133 143 170 251 164 154 193 181 175 160 167 172 158 167 206 208 276 272 228 214 210 192 163 193 199 188 189 151 193 186 191 209 199 162 210 177 208 215 169 179 173 162 157 156
79 102 112 156 201 168 173 159 178 186 197 174 224 220 191 226 229 236 251 264 206 226 206 168 209 202 254 182 196 188 192 196 204 206 184 198 178 204 191 186 187 166 152 146 158
118 136 89 163 133 148 178 195 184 190 164 207 222 198 202 230 222 241 172 248 228 197 186 197 214 156 272 201 176 173 189 201 216 208 163 168 216 179 172 128 154 167 166 167 172
84 56 110 156 155 156 197 192 201 177 235 222 210 199 219 230 230 244 237 212 272 193 193 191 169 195 202 153 146 10 192 196 213 209 191 179 199 160 162 170 179 184 181 174 180